Flag for Germany Weather past 2 weeks in Lippstadt, North Rhine-Westphalia, Germany

Now
32 °F

Sunny.


Feels Like: 25 °F
Forecast: 39 / 46 °F
Wind: 8 mph from South

Location: Paderborn / Lippstadt

Current Time: Feb 28, 2015 at 8:39:28 AM

Latest Report: Feb 28, 2015 at 8:20 AM


Visibility: 10 mi

Pressure: 30.12 "Hg

Humidity: 93%

Dew point: 30 °F

Location of LippstadtLocation

Historic Weather in Lippstadt — Graph

°F

Lippstadt temperature yesterday

Maximum temperature yesterday: 45 °F (at 12:20 AM)
Minimum temperature yesterday: 34 °F (at 11:50 PM)
Average temperature yesterday: 38 °F

Past Weeks' High & Low Weather Summary

 TemperatureHumidityPressure
High50 °F (Feb 14, 12:50 PM)100% (Feb 13, 7:20 AM)30.74 "Hg (Feb 13, 7:20 AM)
Low25 °F (Feb 17, 5:20 AM)49% (Feb 22, 4:20 PM)29.33 "Hg (Feb 21, 6:50 AM)
Average37 °F86%29.97 "Hg
* Reported Feb 13 7:20 AM — Feb 28 7:20 AM, Lippstadt, Weather by CustomWeather, © 2015

Note: Actual official high and low records may vary slightly from our data, if they occured in-between our weather recording intervals... More about our weather records

Advertising

Lippstadt weather history for previous 24 hours

 ConditionsComfort  
Time TempWeatherWind HumidityBarometerVisibility
7:20 AM
Sat, Feb 28
30 °FSunny.8 mph100%30.12 "Hg10 mi
6:50 AM30 °FClear.7 mph100%30.12 "Hg10 mi
6:20 AM30 °FClear.7 mph100%30.12 "Hg10 mi
5:50 AM30 °FPassing clouds.7 mph100%30.12 "HgN/A
5:20 AM28 °FPassing clouds.5 mph100%30.12 "HgN/A
4:50 AM30 °FPassing clouds.7 mph93%30.12 "HgN/A
4:20 AM30 °FPassing clouds.7 mph100%30.12 "HgN/A
3:50 AM30 °FPassing clouds.6 mph100%30.12 "HgN/A
3:20 AM30 °FPassing clouds.6 mph100%30.12 "HgN/A
2:50 AM30 °FClear.7 mph93%30.12 "Hg10 mi
2:20 AM28 °FClear.6 mph100%30.12 "Hg10 mi
1:50 AM30 °FClear.7 mph93%30.12 "Hg10 mi
1:20 AM32 °FClear.6 mph100%30.09 "Hg10 mi
12:50 AM34 °FPassing clouds.5 mph100%30.12 "HgN/A
12:20 AM34 °FPassing clouds.6 mph100%30.12 "HgN/A
11:50 PM
Fri, Feb 27
34 °FPassing clouds.7 mph100%30.12 "HgN/A
11:20 PM36 °FPassing clouds.6 mph93%30.12 "HgN/A
10:50 PM36 °FPassing clouds.5 mph93%30.12 "HgN/A
10:20 PM36 °FPassing clouds.5 mph93%30.12 "HgN/A
9:50 PM36 °FPassing clouds.2 mph93%30.09 "HgN/A
9:20 PM36 °FPassing clouds.5 mph93%30.09 "HgN/A
8:50 PM36 °FPassing clouds.5 mph100%30.09 "HgN/A
8:20 PM37 °FPassing clouds.5 mph93%30.07 "HgN/A
7:50 PM37 °FPassing clouds.6 mph93%30.07 "HgN/A
7:20 PM37 °FClear.6 mph93%30.04 "Hg10 mi
6:50 PM37 °FPassing clouds.5 mph100%30.04 "HgN/A
6:20 PM37 °FPassing clouds.3 mph100%30.04 "HgN/A
5:50 PM37 °FPartly sunny.3 mph100%30.01 "HgN/A
5:20 PM37 °FPartly sunny.6 mph100%30.01 "HgN/A
4:50 PM37 °FPartly sunny.8 mph100%30.01 "HgN/A
4:20 PM39 °FPartly sunny.6 mph100%29.98 "HgN/A
3:50 PM39 °FBroken clouds.6 mph100%29.98 "HgN/A
3:20 PM39 °FBroken clouds.7 mph100%29.95 "HgN/A
2:50 PM39 °FPartly sunny.9 mph93%29.95 "HgN/A
2:20 PM39 °FPartly sunny.8 mph93%29.95 "HgN/A
1:50 PM37 °FLight rain. Mostly cloudy.7 mph100%29.92 "Hg3 mi
1:20 PM37 °FLight rain. Mostly cloudy.6 mph100%29.92 "Hg3 mi
12:50 PM37 °FLight rain. Mostly cloudy.8 mph100%29.92 "Hg2 mi
12:20 PM37 °FLight rain. Fog.5 mph100%29.92 "Hg2 mi
11:50 AM37 °FRain. Fog.6 mph100%29.89 "Hg2 mi
11:20 AM37 °FRain. Fog.6 mph100%29.89 "Hg2 mi
10:50 AM36 °FRain. Fog.7 mph100%29.89 "Hg2 mi
10:20 AM37 °FRain. Fog.8 mph93%29.86 "Hg2 mi
9:50 AM37 °FRain. Fog.8 mph100%29.86 "Hg2 mi
9:20 AM37 °FRain. Fog.6 mph100%29.83 "Hg2 mi
8:50 AM37 °FRain. Fog.3 mph100%29.83 "Hg2 mi
8:20 AM37 °FRain. Partly sunny.5 mph100%29.80 "Hg6 mi
Weather by CustomWeather, © 2015

See weather overviewHow to use our weather pages